Location: Azul
(36.7830°S, 59.8500°W)
Time: 11:51:43
(UTC-03:00)

ISS - Pass Details

Date: 06 March 2021
Orbit: 418 x 422 km, 51.6° (Epoch: 16 April)

Event Time Altitude Azimuth Distance (km) Brightness Sun altitude
Rises 21:08:27 0° 245° (WSW) 2,400 1.7 -19.7°
Reaches altitude 10° 21:11:02 10° 265° (W) 1,525 0.1 -20.2°
Maximum altitude 21:13:25 18° 309° (NW) 1,130 -1.3 -20.6°
Enters shadow 21:14:35 15° 335° (NNW) 1,233 -1.4 -20.9°
